STARLINK-6101 (56115 NORAD) Tracking and Keplerian Element Data

This shows tracking and keplerian element data for the satellite.

Feedback or suggestion? Click here.




ElementValue
Catalog56115
NameSTARLINK-6101
Epoch Orbit652
Epoch Day127.25001157
Epoch Year2023
RAAN37.5544
Inclination43.0019
Eccentricity0.0001382
Argument of Perigee276.7695
Mean Anonmoly207.538
Mean Motion15.31897025
Decay Rate-0.00895793
L11 56115U 23046Y 23127.25001157 -.00895793 00000+0 -31028-1 0 9996
L22 56115 43.0019 37.5544 0001382 276.7695 207.5380 15.31897025 6520



Live tracking and technical data element details for STARLINK-6101 (NORAD 56115). STARLINK-6101 can be tracked NOW for your location showing map with azimuth and elevation plus other details from your city location.







IsCatalogInMostPopularTable: catalog: 56115, numindb: 1
Update: records affected: 1



GetName: 56115 STARLINK-6101

Hit Count: updated at: Sat, 03 Jun 2023 17:53:32 GMT